Location: Lussas
(44.6119°N, 4.4726°E)
Time: 15:49:06
(UTC+00:00)

Cosmos 1151 Rocket - Pass Details

Date: 26 November 2020
Orbit: 593 x 615 km, 82.5° (Epoch: 28 January)

Event Time Altitude Azimuth Distance (km) Brightness Sun altitude
Exits shadow 05:12:30 17° 339° (NNW) 1,521 4.7 -17.5°
Maximum altitude 05:15:37 56° 266° (W) 710 3.0 -17.0°
Drops below altitude 10° 05:19:48 10° 188° (S) 1,930 5.7 -16.3°
Sets 05:22:01 0° 184° (S) 2,830 6.6 -15.9°
